STARLINK-31909, 59663

Orbit data source: Space-Track

STARLINK-31909, 59663 is a payload satellite owned by SpaceX/Seattle (US) in LEO that was launched on Mon, 06 May 2024 UTC via an FALCON 9 launch vehicle from the Air Force Eastern Test Range (AFETR). Payload-class satellites include a variety of spacecraft equipped with specific instruments for various scientific and technological missions. These include communications satellites like Starlink; space stations such as the ISS; scientific satellites like the Hubble; Earth observation satellites from companies like Planet Labs, Umbra, and HawkEye 360; GPS; miniature CubeSats for education and research; and military/defense satellites.

Loading next visibility...
Identifier
59663, 2024-084K
Orbit
LEO
Country
Flag of USUS
Related business
Manufacturer
SpaceX/Seattle
Mission
Operational Commercial Communications
Bus & Motor
STARLINK V2M, Unknown motor
Mass
730 kg wet, ~700 kg dry
Launch date (UTC)
2024-05-06 (2 years ago)
Launch vehicle
FALCON 9
Launch site
Air Force Eastern Test Range (AFETR)
Object type
Payload
Rocket body
Debris
Shape & HBR
Box + 2 Pan, 17.7 m
Radar Cross Section
33.884 m², Large (>1 m²)

Expand to show TLE details & history
Last TLE update: 17 hours ago

TLE from 17 hours ago
0 STARLINK-31909
1 59663U 24084K   26073.10834798  .00005507  00000-0  20962-3 0  9994
2 59663  43.0028  16.4794 0000941 271.5561  88.5183 15.27558320105052
Epoch: 2026-03-14T02:36Z
TLE epoch observation values (Epoch: 2026-03-14T02:36:01.265Z)
Latitude
-0.00001°
Longitude
165.73986°
Altitude
482.873 km
Speed
7.626 km/s
True Right ascension
01h 05m 55s
True Declination
0° 00' 00"
Sunlit
Object was in daylight at epoch
Visualization orbit readout
Latitude
Unknown
Longitude
Unknown
Altitude
Unknown
Speed
Unknown
Apparent Right ascension
Unknown
Apparent Declination
Unknown
Sunlit
N/A
Visualization observer readout
Local Sidereal Time
00:05:04
Azimuth
Unknown
Elevation
Unknown
Doppler factor
Unknown
Orbital elements
Apogee altitude
485.705 km
Perigee altitude
484.413 km
Semi-major axis
6,863.196 km
Eccentricity
0.00009
Inclination
43.0028°
RAAN
16.4794°
Arg. of periapsis
271.5561°
True anomaly
88.52908°
Mean anomaly
88.5183°
Eccentric anomaly
88.52369°
Mean motion
3.81728 °/min
Orbital period
94.31 mins
BSTAR
0.00020962
Loading maneuver chart data...
Computing Atmospheric mass density...
Loading historical data...
Loading historical data...
Loading historical data...
Loading historical data...
Loading historical data...
Loading historical data...
Loading historical data...

Documentation

Showing up to 5 results
|